EW6327 Weather Reports


Display with metric or nautical units.
time (UTC)temp
F
wind
direction
speed
MPH
gust
MPH
rain 1hr
in
rain 24hr
in
rain mn
in
humidity
%
barometer
mb
20231206150024 30 360 1.0 4.0 0.00 0.00 0.00 85 1014.1
20231206145518 30 360 0.0 4.0 0.00 0.00 0.00 85 1014.0
20231206145018 30 360 0.0 2.0 0.00 0.00 0.00 85 1014.1
20231206144518 30 360 0.0 3.0 0.00 0.00 0.00 85 1014.1
20231206144017 30 360 0.0 4.0 0.00 0.00 0.00 86 1014.2
20231206143518 30 360 1.0 4.0 0.00 0.00 0.00 85 1014.2
20231206143017 30 355 1.0 4.0 0.00 0.00 0.00 85 1014.1
20231206142519 30 355 0.0 5.0 0.00 0.00 0.00 86 1014.1
20231206142016 30 355 2.0 5.0 0.00 0.00 0.00 86 1014.1
20231206141517 30 355 0.0 2.0 0.00 0.00 0.00 86 1014.1
20231206141016 30 351 0.0 3.0 0.00 0.00 0.00 87 1014.1
20231206140516 30 351 0.0 4.0 0.00 0.00 0.00 87 1014.1
20231206140015 30 355 0.0 3.0 0.00 0.00 0.00 87 1014.0
20231206135616 30 355 0.0 4.0 0.00 0.00 0.00 87 1014.0
20231206135015 30 355 0.0 4.0 0.00 0.00 0.00 87 1014.1
20231206134514 30 355 0.0 3.0 0.00 0.00 0.00 87 1014.1
20231206134014 29 355 0.0 2.0 0.00 0.00 0.00 87 1014.1
20231206133513 29 355 0.0 2.0 0.00 0.00 0.00 87 1014.2
20231206133012 29 355 0.0 2.0 0.00 0.00 0.00 88 1014.3
20231206132511 29 355 0.0 1.0 0.00 0.00 0.00 88 1014.3
20231206132012 29 355 0.0 1.0 0.00 0.00 0.00 88 1014.3
20231206131511 29 355 0.0 1.0 0.00 0.00 0.00 88 1014.3
20231206131011 29 355 0.0 2.0 0.00 0.00 0.00 87 1014.4
20231206130510 29 355 0.0 3.0 0.00 0.00 0.00 87 1014.4
20231206130021 29 355 0.0 3.0 0.00 0.00 0.00 87 1014.4
20231206125511 29 355 0.0 1.0 0.00 0.00 0.00 87 1014.3
20231206125009 29 355 0.0 4.0 0.00 0.00 0.00 87 1014.4
20231206124510 29 355 0.0 4.0 0.00 0.00 0.00 87 1014.4
20231206124010 29 355 0.0 2.0 0.00 0.00 0.00 87 1014.4
20231206123510 29 355 0.0 2.0 0.00 0.00 0.00 87 1014.5
20231206123012 28 355 0.0 2.0 0.00 0.00 0.00 87 1014.6
20231206122512 28 355 0.0 1.0 0.00 0.00 0.00 87 1014.6
20231206122011 28 355 0.0 1.0 0.00 0.00 0.00 87 1014.6
20231206121514 28 355 0.0 1.0 0.00 0.00 0.00 87 1014.7
20231206121011 28 355 0.0 3.0 0.00 0.00 0.00 87 1014.7
20231206120510 28 355 0.0 3.0 0.00 0.00 0.00 87 1014.6
20231206120013 28 351 0.0 1.0 0.00 0.00 0.00 87 1014.7
20231206115508 28 351 0.0 2.0 0.00 0.00 0.00 87 1014.7
20231206115008 28 351 0.0 2.0 0.00 0.00 0.00 88 1014.7
20231206114512 28 351 0.0 0.0 0.00 0.00 0.00 87 1014.7
20231206114007 28 351 0.0 0.0 0.00 0.00 0.00 88 1014.6
20231206113507 28 351 0.0 0.0 0.00 0.00 0.00 88 1014.5
20231206113007 28 351 0.0 0.0 0.00 0.00 0.00 87 1014.6
20231206112507 28 351 0.0 0.0 0.00 0.00 0.00 87 1014.5
20231206112007 27 351 0.0 0.0 0.00 0.00 0.00 87 1014.5
20231206111507 27 351 0.0 0.0 0.00 0.00 0.00 88 1014.4
20231206111005 27 351 0.0 1.0 0.00 0.00 0.00 88 1014.4
20231206110504 27 351 0.0 1.0 0.00 0.00 0.00 88 1014.3
20231206110004 27 351 0.0 1.0 0.00 0.00 0.00 88 1014.2
20231206105503 27 351 0.0 0.0 0.00 0.00 0.00 88 1014.2
20231206105002 27 351 0.0 0.0 0.00 0.00 0.00 87 1014.1
20231206104502 27 351 0.0 0.0 0.00 0.00 0.00 87 1014.1
20231206104002 27 351 0.0 0.0 0.00 0.00 0.00 87 1014.1
20231206103501 27 351 0.0 0.0 0.00 0.00 0.00 87 1014.1
20231206103100 27 351 0.0 0.0 0.00 0.00 0.00 87 1014.1
20231206102559 27 351 0.0 0.0 0.00 0.00 0.00 87 1014.1
20231206102058 27 351 0.0 0.0 0.00 0.00 0.00 87 1014.0
20231206101558 27 351 0.0 0.0 0.00 0.00 0.00 87 1014.0
20231206101058 27 351 0.0 0.0 0.00 0.00 0.00 87 1013.9
20231206100601 27 351 0.0 0.0 0.00 0.00 0.00 87 1014.0
20231206100101 27 351 0.0 0.0 0.00 0.00 0.00 87 1014.0
20231206095559 27 351 0.0 0.0 0.00 0.00 0.00 87 1014.0
20231206095056 27 351 0.0 0.0 0.00 0.00 0.00 87 1013.9
20231206094557 27 351 0.0 0.0 0.00 0.00 0.00 87 1013.9
20231206094054 27 351 0.0 0.0 0.00 0.00 0.00 87 1014.0
20231206093553 27 351 0.0 0.0 0.00 0.00 0.00 87 1014.1
20231206093052 27 351 0.0 0.0 0.00 0.00 0.00 87 1014.1
20231206092550 27 351 0.0 0.0 0.00 0.00 0.00 86 1014.0
20231206092052 27 351 0.0 0.0 0.00 0.00 0.00 86 1013.9
20231206091559 27 351 0.0 0.0 0.00 0.00 0.00 86 1014.0
20231206091050 27 351 0.0 0.0 0.00 0.00 0.00 86 1014.0
20231206090550 27 351 0.0 0.0 0.00 0.00 0.00 86 1013.9
20231206090047 27 351 0.0 0.0 0.00 0.00 0.00 86 1014.0
20231206085549 27 351 0.0 0.0 0.00 0.00 0.00 87 1014.0
20231206085044 27 351 0.0 0.0 0.00 0.00 0.00 86 1014.0
20231206084547 27 351 0.0 0.0 0.00 0.00 0.00 87 1014.0
20231206084042 27 351 0.0 0.0 0.00 0.00 0.00 87 1014.2
20231206083542 27 351 0.0 0.0 0.00 0.00 0.00 87 1014.3
20231206083040 27 351 0.0 0.0 0.00 0.00 0.00 87 1014.3
20231206082543 27 351 0.0 0.0 0.00 0.00 0.00 87 1014.2
20231206082039 26 351 0.0 0.0 0.00 0.00 0.00 87 1014.3
20231206081543 26 351 0.0 0.0 0.00 0.00 0.00 87 1014.2
20231206081036 26 351 0.0 0.0 0.00 0.00 0.00 87 1014.2
20231206080536 26 351 0.0 0.0 0.00 0.00 0.00 87 1014.2
20231206080035 26 351 0.0 0.0 0.00 0.00 0.00 86 1014.3
20231206075534 26 351 0.0 0.0 0.00 0.00 0.00 87 1014.3
20231206075032 26 351 0.0 0.0 0.00 0.00 0.00 86 1014.4
20231206074535 26 351 0.0 0.0 0.00 0.00 0.00 86 1014.3
20231206074031 26 351 0.0 0.0 0.00 0.00 0.00 86 1014.3
20231206073530 26 351 0.0 0.0 0.00 0.00 0.00 86 1014.4
20231206073028 27 351 0.0 0.0 0.00 0.00 0.00 86 1014.5
20231206072528 27 351 0.0 0.0 0.00 0.00 0.00 86 1014.5
20231206072027 27 351 0.0 0.0 0.00 0.00 0.00 86 1014.5
20231206071525 27 351 0.0 0.0 0.00 0.00 0.00 86 1014.5
20231206071029 27 351 0.0 0.0 0.00 0.00 0.00 85 1014.5
20231206070526 27 351 0.0 0.0 0.00 0.00 0.00 85 1014.5
20231206070024 27 351 0.0 0.0 0.00 0.00 0.00 85 1014.6
20231206065522 27 351 0.0 0.0 0.00 0.00 0.00 85 1014.4
20231206065021 27 351 0.0 0.0 0.00 0.00 0.00 85 1014.4
20231206064520 27 351 0.0 0.0 0.00 0.00 0.00 85 1014.4
20231206064019 27 351 0.0 0.0 0.00 0.00 0.00 85 1014.5
20231206063519 27 351 0.0 0.0 0.00 0.00 0.00 84 1014.6
20231206063017 27 351 0.0 0.0 0.00 0.00 0.00 84 1014.5
20231206062516 28 351 0.0 0.0 0.00 0.00 0.00 84 1014.5
20231206062014 28 351 0.0 0.0 0.00 0.00 0.00 84 1014.3
20231206061513 28 351 0.0 0.0 0.00 0.00 0.00 84 1014.4
20231206061012 28 351 0.0 0.0 0.00 0.00 0.00 84 1014.4
20231206060515 28 351 0.0 0.0 0.00 0.00 0.00 84 1014.4
20231206060010 28 351 0.0 0.0 0.00 0.00 0.00 84 1014.4
20231206055508 28 351 0.0 0.0 0.00 0.00 0.00 85 1014.5
20231206055007 28 351 0.0 0.0 0.00 0.00 0.00 85 1014.5
20231206054507 28 350 0.0 0.0 0.00 0.00 0.00 85 1014.6
20231206054006 28 351 0.0 0.0 0.00 0.00 0.00 85 1014.7
20231206053505 28 351 0.0 0.0 0.00 0.00 0.00 85 1014.8
20231206053009 28 351 0.0 0.0 0.00 0.00 0.00 85 1014.9
20231206052501 28 351 0.0 0.0 0.00 0.00 0.00 85 1015.0
20231206052104 28 351 0.0 0.0 0.00 0.00 0.00 85 1015.0
20231206051600 29 351 0.0 0.0 0.00 0.00 0.00 84 1015.0
20231206051102 29 351 0.0 0.0 0.00 0.00 0.00 84 1015.1
20231206050556 29 351 0.0 0.0 0.00 0.00 0.00 84 1015.1
20231206050055 29 351 0.0 0.0 0.00 0.00 0.00 84 1015.1
20231206045555 29 351 0.0 0.0 0.00 0.00 0.00 85 1015.2
20231206045055 29 351 0.0 0.0 0.00 0.00 0.00 85 1015.1
20231206044554 29 351 0.0 0.0 0.00 0.00 0.00 85 1015.1
20231206044055 29 351 0.0 0.0 0.00 0.00 0.00 85 1015.2
20231206043554 29 351 0.0 0.0 0.00 0.00 0.00 84 1015.2
20231206043053 29 351 0.0 0.0 0.00 0.00 0.00 84 1015.3
20231206042553 29 351 0.0 0.0 0.00 0.00 0.00 84 1015.3
20231206042053 29 350 0.0 0.0 0.00 0.00 0.00 84 1015.3
20231206041552 29 351 0.0 0.0 0.00 0.00 0.00 84 1015.4
20231206041052 29 351 0.0 0.0 0.00 0.00 0.00 84 1015.4
20231206040553 29 351 0.0 0.0 0.00 0.00 0.00 84 1015.5
20231206040050 29 351 0.0 0.0 0.00 0.00 0.00 84 1015.4
20231206035548 30 351 0.0 0.0 0.00 0.00 0.00 84 1015.4
20231206035047 30 351 0.0 0.0 0.00 0.00 0.00 84 1015.4
20231206034546 30 351 0.0 0.0 0.00 0.00 0.00 84 1015.5
20231206034045 30 351 0.0 0.0 0.00 0.00 0.00 83 1015.4
20231206033544 30 351 0.0 0.0 0.00 0.00 0.00 83 1015.5
20231206033043 30 351 0.0 0.0 0.00 0.00 0.00 83 1015.4
20231206032543 30 351 0.0 0.0 0.00 0.00 0.00 82 1015.5
20231206032043 31 351 0.0 0.0 0.00 0.00 0.00 82 1015.5
20231206031548 31 351 0.0 0.0 0.00 0.00 0.00 82 1015.6
20231206031041 31 351 0.0 0.0 0.00 0.00 0.00 82 1015.8
20231206030541 31 351 0.0 0.0 0.00 0.00 0.00 81 1015.8
20231206030041 31 351 0.0 0.0 0.00 0.00 0.00 82 1015.9
20231206025540 31 351 0.0 0.0 0.00 0.01 0.00 81 1016.0
20231206025038 31 351 0.0 0.0 0.00 0.01 0.00 81 1016.0
20231206024538 32 351 0.0 0.0 0.00 0.01 0.00 81 1016.0
20231206024038 32 351 0.0 0.0 0.00 0.01 0.00 81 1016.0
20231206023537 32 350 0.0 0.0 0.00 0.01 0.00 81 1016.0
20231206023041 32 351 0.0 0.0 0.00 0.01 0.00 81 1016.0
20231206022539 32 351 0.0 0.0 0.00 0.01 0.00 80 1016.1
20231206022035 32 351 0.0 0.0 0.00 0.01 0.00 80 1016.1
20231206021535 32 351 0.0 0.0 0.00 0.01 0.00 81 1016.0
20231206021035 32 351 0.0 0.0 0.00 0.01 0.00 80 1016.1
20231206020534 33 351 0.0 0.0 0.00 0.01 0.00 80 1016.1
20231206020033 33 351 0.0 0.0 0.00 0.01 0.00 80 1016.1
20231206015533 33 351 0.0 0.0 0.00 0.01 0.00 80 1016.1
20231206015032 33 351 0.0 0.0 0.00 0.01 0.00 80 1016.0
20231206014531 33 350 0.0 0.0 0.00 0.01 0.00 80 1015.9
20231206014031 33 351 0.0 0.0 0.00 0.01 0.00 79 1015.7
20231206013531 33 351 0.0 0.0 0.00 0.01 0.00 79 1015.7
20231206013029 33 351 0.0 0.0 0.00 0.01 0.00 79 1015.6
20231206012529 33 351 0.0 0.0 0.00 0.01 0.00 79 1015.6
20231206012029 33 351 0.0 0.0 0.00 0.01 0.00 78 1015.6
20231206011538 33 351 0.0 0.0 0.00 0.01 0.00 78 1015.6
20231206011028 33 351 0.0 0.0 0.00 0.01 0.00 78 1015.6
20231206010528 33 351 0.0 0.0 0.00 0.01 0.00 78 1015.6
20231206010027 33 350 0.0 0.0 0.00 0.01 0.00 78 1015.6
20231206005529 34 351 0.0 0.0 0.00 0.01 0.00 78 1015.6
20231206005028 34 351 0.0 0.0 0.00 0.01 0.00 77 1015.5
20231206004526 34 351 0.0 0.0 0.00 0.01 0.00 77 1015.6
20231206004026 34 351 0.0 0.0 0.00 0.01 0.00 77 1015.4
20231206003525 34 351 0.0 0.0 0.00 0.01 0.00 77 1015.4
20231206003030 34 351 0.0 0.0 0.00 0.01 0.00 77 1015.3
20231206002524 34 350 0.0 0.0 0.00 0.01 0.00 78 1015.4
20231206002027 34 351 0.0 0.0 0.00 0.01 0.00 78 1015.5
20231206001525 34 351 0.0 0.0 0.00 0.01 0.00 78 1015.4
20231206001025 34 351 0.0 0.0 0.00 0.01 0.00 77 1015.4
20231206000524 34 351 0.0 0.0 0.00 0.01 0.00 77 1015.5
20231206000025 34 351 0.0 0.0 0.00 0.01 0.00 77 1015.3
20231205235524 34 351 0.0 0.0 0.00 0.01 0.00 76 1015.3
20231205235023 34 351 0.0 0.0 0.00 0.01 0.00 76 1015.3
20231205234525 34 351 0.0 0.0 0.00 0.01 0.00 75 1015.3
20231205234023 34 351 0.0 0.0 0.00 0.01 0.00 75 1015.3
20231205233523 34 351 0.0 0.0 0.00 0.01 0.00 75 1015.1
20231205233022 34 351 0.0 0.0 0.00 0.01 0.00 75 1015.1
20231205232521 35 351 0.0 0.0 0.00 0.01 0.00 74 1015.0
20231205232022 35 351 0.0 0.0 0.00 0.01 0.00 74 1015.0
20231205231521 35 351 0.0 0.0 0.00 0.01 0.00 74 1015.1
20231205231020 35 351 0.0 0.0 0.00 0.01 0.00 74 1015.1
20231205230520 35 351 0.0 0.0 0.00 0.01 0.00 74 1014.9
20231205230018 35 351 0.0 0.0 0.00 0.01 0.00 73 1014.8
20231205225517 35 351 0.0 0.0 0.00 0.01 0.00 73 1014.9
20231205225017 35 351 0.0 1.0 0.00 0.01 0.00 73 1015.0
20231205224517 35 351 0.0 1.0 0.00 0.01 0.00 73 1014.9
20231205224017 35 351 0.0 0.0 0.00 0.01 0.00 73 1014.8
20231205223517 35 351 0.0 0.0 0.00 0.01 0.00 73 1014.8
20231205223016 35 351 0.0 0.0 0.00 0.01 0.00 72 1014.8
20231205222515 35 351 0.0 0.0 0.00 0.01 0.00 71 1014.9
20231205222015 35 350 0.0 0.0 0.00 0.01 0.00 72 1015.0
20231205221515 35 350 0.0 0.0 0.00 0.01 0.00 71 1015.1
20231205221017 35 350 0.0 0.0 0.00 0.01 0.00 72 1015.0
20231205220516 35 351 0.0 0.0 0.00 0.01 0.00 72 1015.1
20231205220015 35 351 0.0 0.0 0.00 0.01 0.00 71 1015.2
20231205215516 35 351 0.0 0.0 0.00 0.01 0.00 71 1015.2
20231205215015 35 351 0.0 0.0 0.00 0.01 0.00 71 1015.2
20231205214514 35 351 0.0 0.0 0.00 0.01 0.00 71 1015.3
20231205214013 36 351 0.0 0.0 0.00 0.01 0.00 72 1015.2
20231205213513 36 351 0.0 0.0 0.00 0.01 0.00 71 1015.2
20231205213013 36 351 0.0 0.0 0.00 0.01 0.00 70 1015.0
20231205212512 36 351 0.0 0.0 0.00 0.01 0.00 70 1015.0
20231205212011 36 351 0.0 0.0 0.00 0.01 0.00 70 1015.0
20231205211513 36 351 0.0 0.0 0.00 0.01 0.00 70 1015.0
20231205211011 36 351 0.0 0.0 0.00 0.01 0.00 69 1015.0
20231205210511 36 351 0.0 0.0 0.00 0.01 0.00 69 1014.9
20231205210018 36 351 0.0 0.0 0.00 0.01 0.00 70 1014.9
20231205205510 36 351 0.0 0.0 0.00 0.01 0.00 70 1015.0
20231205205009 36 351 0.0 0.0 0.00 0.01 0.00 70 1014.9
20231205204528 36 351 0.0 0.0 0.00 0.01 0.00 71 1014.9
20231205204009 36 350 0.0 0.0 0.00 0.01 0.00 70 1014.8
20231205203511 36 351 0.0 0.0 0.00 0.01 0.00 70 1014.7
20231205203009 36 351 0.0 0.0 0.00 0.01 0.00 70 1014.6
20231205202509 36 351 0.0 0.0 0.00 0.01 0.00 69 1014.6
20231205202006 36 351 0.0 0.0 0.00 0.01 0.00 69 1014.5
20231205201507 36 350 0.0 0.0 0.00 0.01 0.00 69 1014.5
20231205201006 36 350 0.0 0.0 0.00 0.01 0.00 69 1014.5
20231205200506 36 351 0.0 0.0 0.00 0.01 0.00 69 1014.5
20231205200007 36 351 0.0 0.0 0.00 0.01 0.00 69 1014.5
20231205195507 36 351 0.0 0.0 0.00 0.01 0.00 69 1014.5
20231205195006 36 351 0.0 0.0 0.00 0.01 0.00 69 1014.5
20231205194506 36 350 0.0 0.0 0.00 0.01 0.00 69 1014.5
20231205194006 36 351 0.0 0.0 0.00 0.01 0.00 69 1014.5
20231205193505 36 351 0.0 0.0 0.00 0.01 0.00 69 1014.5
20231205193004 36 351 0.0 0.0 0.00 0.01 0.00 69 1014.4
20231205192504 36 351 0.0 0.0 0.00 0.01 0.00 70 1014.4
20231205192003 36 350 0.0 0.0 0.00 0.01 0.00 70 1014.3
20231205191502 36 351 0.0 0.0 0.00 0.01 0.00 69 1014.3
20231205191001 36 351 0.0 1.0 0.00 0.01 0.00 68 1014.3
20231205190600 36 351 0.0 2.0 0.00 0.01 0.00 69 1014.2
20231205190058 37 350 0.0 2.0 0.00 0.01 0.00 70 1014.2
20231205185557 37 350 0.0 2.0 0.00 0.01 0.00 68 1014.1
20231205185059 37 355 0.0 1.0 0.00 0.01 0.00 69 1014.1
20231205184556 37 355 0.0 1.0 0.00 0.01 0.00 69 1014.0
20231205184055 37 355 0.0 1.0 0.00 0.01 0.00 68 1013.9
20231205183554 37 355 0.0 0.0 0.00 0.01 0.00 68 1013.9
20231205183053 37 355 0.0 0.0 0.00 0.01 0.00 68 1013.9
20231205182554 37 355 0.0 1.0 0.00 0.01 0.00 68 1013.9
20231205182054 37 355 0.0 2.0 0.00 0.01 0.00 69 1014.0
20231205181556 37 355 0.0 2.0 0.00 0.01 0.00 68 1014.0
20231205181053 37 12 0.0 1.0 0.00 0.01 0.00 67 1013.8
20231205180553 37 12 0.0 1.0 0.00 0.01 0.00 68 1013.7
20231205180053 37 12 0.0 2.0 0.00 0.01 0.00 67 1013.7
20231205175554 37 12 0.0 1.0 0.00 0.01 0.00 66 1013.5
20231205175053 37 15 0.0 2.0 0.00 0.01 0.00 67 1013.4
20231205174553 37 15 0.0 2.0 0.00 0.01 0.00 67 1013.4
20231205174052 37 15 0.0 1.0 0.00 0.01 0.00 67 1013.4
20231205173552 37 15 0.0 2.0 0.00 0.01 0.00 67 1013.4
20231205173052 37 15 0.0 2.0 0.00 0.01 0.00 67 1013.4
20231205172551 37 16 0.0 9.0 0.00 0.01 0.00 68 1013.5
20231205172051 37 17 1.0 9.0 0.00 0.01 0.00 67 1013.5
20231205171551 37 9 0.0 2.0 0.00 0.01 0.00 66 1013.5
20231205171051 38 349 0.0 3.0 0.00 0.01 0.00 66 1013.5
20231205170551 38 348 0.0 3.0 0.00 0.01 0.00 66 1013.5
20231205170051 38 341 0.0 2.0 0.00 0.01 0.00 66 1013.4
20231205165551 38 341 0.0 2.0 0.00 0.01 0.00 65 1013.4
20231205165054 39 340 0.0 3.0 0.00 0.01 0.00 65 1013.5
20231205164558 39 338 0.0 3.0 0.00 0.01 0.00 66 1013.5
20231205164052 39 335 0.0 3.0 0.00 0.01 0.00 67 1013.7
20231205163552 38 360 0.0 11.0 0.00 0.01 0.00 67 1013.8
20231205163050 38 9 2.0 11.0 0.00 0.01 0.00 67 1013.9
20231205162549 38 12 0.0 5.0 0.00 0.01 0.00 68 1014.1
20231205162049 37 30 0.0 14.0 0.00 0.01 0.00 67 1014.1
20231205161551 38 11 3.0 14.0 0.00 0.01 0.00 67 1014.2
20231205161048 38 5 1.0 11.0 0.00 0.01 0.00 65 1014.2
20231205160548 39 9 2.0 8.0 0.00 0.01 0.00 67 1014.1
20231205160048 38 355 0.0 9.0 0.00 0.01 0.00 68 1014.1
20231205155550 38 360 1.0 13.0 0.00 0.01 0.00 68 1014.1
20231205155049 38 14 3.0 13.0 0.00 0.01 0.00 70 1014.1
20231205154546 38 5 1.0 8.0 0.00 0.01 0.00 70 1014.1
20231205154046 38 28 2.0 9.0 0.00 0.01 0.00 69 1013.9
20231205153545 38 290 2.0 9.0 0.00 0.01 0.00 70 1014.1
20231205153045 38 355 0.0 4.0 0.00 0.01 0.00 72 1014.1
20231205152544 38 5 0.0 12.0 0.00 0.01 0.00 72 1014.0
20231205152047 38 11 0.0 12.0 0.00 0.01 0.00 71 1013.9
20231205151544 38 355 1.0 5.0 0.00 0.01 0.00 73 1014.0
20231205151044 38 355 0.0 6.0 0.00 0.01 0.00 72 1013.9
20231205150544 38 355 0.0 6.0 0.00 0.01 0.00 74 1013.9